This is the latest recevied weather packets stored in our database for station/object HB9TVK-13. If no packets are shown the sender has not sent any weather packets the latest 1 day(s).
| Time | Temp. | Humidity | Pressure | Rain* | Wind** | Luminosity | Snow |
|---|---|---|---|---|---|---|---|
| 1778068638 | 11.11° C | 94% | 1008.6 hPa | 1.02 mm | - | - | - |
| 1778068036 | 11.67° C | 93% | 1008.5 hPa | 0.51 mm | - | - | - |
| 1778067436 | 11.67° C | 91% | 1008.3 hPa | 0.51 mm | - | - | - |
| 1778065637 | 12.22° C | 88% | 1008.1 hPa | 0.25 mm | - | - | - |
| 1778063836 | 12.78° C | 85% | 1008.1 hPa | 0.25 mm | - | - | - |
| 1778063236 | 12.78° C | 88% | 1008 hPa | 0.25 mm | - | - | - |
| 1778062637 | 11.67° C | 86% | 1008 hPa | 0 mm | - | - | - |
| 1778060838 | 12.22° C | 86% | 1008.2 hPa | 0 mm | - | - | - |
| 1778060236 | 12.22° C | 84% | 1008.2 hPa | 0 mm | - | - | - |
| 1778059636 | 12.22° C | 87% | 1008.1 hPa | 0 mm | - | - | - |
| 1778059036 | 12.22° C | 89% | 1007.9 hPa | 0 mm | - | - | - |
| 1778058436 | 11.67° C | 89% | 1007.9 hPa | 0 mm | - | - | - |
| 1778057837 | 11.67° C | 89% | 1008 hPa | 0 mm | - | - | - |
| 1778055435 | 11.67° C | 88% | 1007.9 hPa | 0 mm | - | - | - |
| 1778054836 | 11.67° C | 89% | 1007.9 hPa | 0 mm | - | - | - |
| 1778053637 | 11.11° C | 90% | 1007.9 hPa | 0 mm | - | - | - |
| 1778053037 | 11.11° C | 90% | 1007.9 hPa | 0 mm | - | - | - |
| 1778052437 | 11.11° C | 91% | 1008 hPa | 0 mm | - | - | - |
| 1778051836 | 11.67° C | 90% | 1007.8 hPa | 0 mm | - | - | - |
| 1778050636 | 11.11° C | 89% | 1007.9 hPa | 0 mm | - | - | - |
| 1778050036 | 11.11° C | 90% | 1007.9 hPa | 0 mm | - | - | - |
| 1778048837 | 11.11° C | 90% | 1007.8 hPa | 0 mm | - | - | - |
| 1778047635 | 10.56° C | 91% | 1007.7 hPa | 0 mm | - | - | - |
| 1778046436 | 10° C | 92% | 1008 hPa | 0 mm | - | - | - |
| 1778045237 | 9.44° C | 93% | 1007.9 hPa | 0 mm | - | - | - |
* Rain latest hour (hover to see other rain measurements)
** Current wind speed in m/s (hover to see current wind gust speed)